User: anonymous
Location: Unspecified
(0.0000°N, 0.0000°E)
Time: 19:20:37
(UTC+02:00)
Language:

GPS 2-05 Rocket1 - Orbit

View from above orbital plane
View from above orbital plane
View from above satellite
View from above satellite

Ground track
Ground track

The orbit data is extracted from the following two-line orbital elements,

1 20362U 89097B   14233.84034763  .00006205  00000-0  21663-3 0  4960
2 20362 035.6243 352.8598 0108820 329.5859 174.0846 15.23489458340903
Epoch (UTC): 21 August 2014 20:10:06
Eccentricity: 0.0108820
inclination: 35.6243°
perigee height: 420 km
apogee height: 570 km
right ascension of ascending node: 352.8598°
argument of perigee: 329.5859°
revolutions per day: 15.23489458
mean anomaly at epoch: 174.0846°
orbit number at epoch: 34090

The dashed part of the orbit path shows where the satellite is in the earth's shadow,  

DLR